Regional Weather Roundup
Issued by NWS

Home | Current Version | Previous Version | Graphics & Text | Print | Product List | Glossary On
Versions: 1 2 3 4 5 6 7 8 9 10 11 12 13 14 15 16 17 18 19 20 21 22 23 24 25 26 27 28 29 30 31 32 33 34 35 36 37 38 39 40 41 42 43 44 45 46 47 48 49 50
000
ASUS45 KSLC 280610
RWRUT

UTAH REGIONAL WEATHER ROUNDUP
NATIONAL WEATHER SERVICE SALT LAKE CITY UT
1100 PM MST FRI FEB 27 2015

UTZ001>011-023>025-280700-

NORTHERN UTAH

CITY           SKY/WX    TMP DP  RH WIND       PRES   REMARKS
BRIGHAM CITY   PTCLDY    29  25  84 NW5       29.72S WCI  24
HILL AFB       CLEAR     32  20  61 E9        29.69F WCI  25
LOGAN          CLEAR     28  25  88 S3        29.73S
OGDEN          CLEAR     30  21  69 S5        29.69F WCI  25
PROVO AIRPORT  CLEAR     28  25  86 W6        29.70F WCI  22
SALT LAKE CITY PTCLDY    33  24  69 S8        29.69F WCI  26
VERNAL         LGT SNOW  30  24  78 NW13      29.77S WCI  20
WENDOVER       MOCLDY    37  27  65 N16       29.67F WCI  28
HEBER CITY     CLEAR     25  19  80 CALM      29.72S
WEST JORDAN    CLEAR     30  25  80 SW7       29.70F WCI  23

$$

UTZ012>022-026-027-280700-

SOUTHERN/CENTRAL UTAH

CITY           SKY/WX    TMP DP  RH WIND       PRES   REMARKS
BLANDING       CLOUDY    30  29  98 N5        29.85S WCI  25
BRYCE CANYON   CLOUDY    19  17  92 SW5       29.71S FOG     WCI  12
CEDAR CITY     MOCLDY    31  23  72 S7        29.63F WCI  24
DELTA          CLEAR     31  21  65 NE8       29.65S WCI  24
HANKSVILLE     PTCLDY    32  28  86 SE5       29.77S WCI  27
MILFORD        MOCLDY    30  16  56 CALM      29.64F
MOAB/CYNLANDS  PTCLDY    35  24  64 SE5       29.75R WCI  31
PRICE          CLOUDY    29  19  66 CALM      29.73F
ST GEORGE      MOCLDY    52  30  43 E13       29.64F
KANAB          CLOUDY    34  32  93 NW12      29.75R WCI  25

$$

REGIONAL REPORTS     COLORADO/ARIZONA

CITY           SKY/WX    TMP DP  RH WIND       PRES   REMARKS
CRAIG, CO      CLEAR     20  11  68 NE6       29.78S WCI  12
GRAND JUNCTION PTCLDY    29  25  85 SE12      29.77S WCI  19
RIFLE          PTCLDY    26  19  74 CALM      29.79R
MONTROSE       PTCLDY    20  17  88 S5        29.80S WCI  13
CORTEZ         MOCLDY    28  27  96 CALM      29.78S
PAGE, AZ       CLOUDY    39  35  86 SE3       29.73S
GRAND CANYON   CLOUDY    31  30  96 CALM      29.72F
KINGMAN        PTCLDY    53  33  46 S13       29.61F
FLAGSTAFF      CLOUDY    37  26  64 SW8       29.74F WCI  31

$$

REGIONAL REPORTS    NEVADA/IDAHO/WYOMING

CITY           SKY/WX    TMP DP  RH WIND       PRES   REMARKS
LAS VEGAS, NV  PTCLDY    58  36  43 S15       29.51F
ELY            CLOUDY    31  26  82 SW6       29.62F WCI  25
ELKO           LGT SNOW  32  31  96 SW3       29.62S VSB 3/4
POCATELLO, ID  CLEAR     23  22  96 NE8       29.74S WCI  14
BURLEY         MOCLDY    32  25  75 E16       29.68S WCI  21
EVANSTON, WY   CLEAR     20  16  84 E5        29.70F WCI  13
ROCK SPRINGS   PTCLDY    22  13  68 CALM      29.74S

$$


USA.gov is the U.S. government's official web portal to all federal, state and local government web resources and services.